Vertical_Velocity
-0 2 2 1 1 0 3 3 -4 -3 -0 -1 1 -1 -2 -1 2 1 12 -8 -0 0 1 2 -0 1 0 1 0 -3 -2 6 2 2 2 -0 -1 -3 0 -1 0 -1 -1 -1 -2
1 -1 0 1 1 2 0 2 2 2 1 -1 -2 0 1 0 -5 11 -12 0 3 1 -1 -0 -2 2 -0 -1 -2 -4 1 6 2 1 1 -2 1 -0 -2 0 2 -1 2 -1 6
2 1 -0 3 2 1 2 2 2 1 0 1 1 -2 -2 -1 3 12 -2 2 4 -2 -2 -1 -1 -0 1 -2 4 -0 7 -1 4 1 1 2 -1 -2 -1 1 2 -0 1 1 0
3 0 -0 -1 1 1 2 2 2 1 2 -1 0 2 -2 -1 -6 2 -3 1 0 -1 1 -0 -1 -1 2 -3 -4 -2 -1 0 2 -0 -2 1 0 0 -4 9 0 -2 -1 2 -1
1 2 2 1 1 -3 4 3 2 2 1 1 -1 1 -1 -6 22 3 3 6 0 0 -0 0 -3 -1 4 4 -6 -3 4 -1 -2 1 0 -0 3 -3 -1 1 -6 1 3 -0 -0
-1 1 2 3 1 -0 -2 0 1 1 2 1 -0 0 -6 -23 20 -12 2 -0 4 1 -2 0 3 -5 -6 2 -7 8 -3 1 -0 6 -1 1 1 -6 8 -3 3 1 1 1 3
1 1 4 3 3 4 3 -0 1 2 1 2 1 -4 -16 49 15 6 -1 6 3 1 2 1 -5 1 1 3 -4 4 -4 -1 6 6 1 -4 -2 4 -6 2 1 3 3 2 0
0 -0 1 3 2 4 3 4 -0 5 4 2 -3 -7 -39 22 9 7 10 3 4 5 2 -2 -4 -1 0 -3 -5 -2 -5 -6 26 -0 5 -6 14 5 -3 2 -2 1 1 1 0
-0 -1 -1 0 0 4 4 3 4 5 6 6 -10 -4 -15 17 -8 15 -9 10 -4 4 7 -2 -2 -2 -4 -1 -9 -11 -0 3 0 6 -8 -10 6 15 0 -3 -1 1 1 1 1
-2 1 0 -2 0 3 6 7 4 9 9 9 -19 -14 -19 8 18 21 5 3 -4 -2 -0 -3 -6 -4 -9 -14 -9 11 14 7 1 2 -3 -7 3 6 -2 -3 3 0 0 2 -2
1 -1 2 1 2 1 6 3 11 0 3 10 -0 23 3 14 28 27 6 5 -1 -5 -17 6 -11 -31 22 8 11 5 -3 -2 9 6 -13 -4 -6 4 1 -5 -1 0 1 1 1
3 2 -1 -0 1 3 3 -2 12 2 1 2 -4 3 -23 -5 4 -4 13 3 1 -2 23 -15 -67 43 5 3 3 0 -5 -4 4 7 -15 5 -5 -3 -4 2 -1 -2 -1 -3 0
2 3 3 0 5 3 -1 6 11 11 -5 10 7 -6 -1 6 0 2 5 4 5 -3 -14 4 27 9 -3 8 -0 6 -8 13 3 5 2 3 -42 1 8 -6 -1 3 1 -2 2
3 6 1 5 7 6 6 7 13 10 -6 -13 -9 -33 -18 1 -37 15 7 3 -12 -2 35 -17 45 -14 3 -10 6 -22 34 6 9 7 -19 2 -85 -10 -2 -1 0 -2 0 2 -1
3 1 3 3 -7 10 8 4 14 8 -15 5 -9 13 -6 -14 35 -5 20 -6 -6 22 20 -57 18 0 -3 17 -1 0 -0 12 14 -5 -2 -7 -60 43 -6 5 11 4 6 1 -3
-1 -2 -1 -5 4 8 10 5 27 19 -32 -31 3 -19 10 -9 3 0 -6 14 16 7 -10 -33 10 7 -40 19 8 16 6 2 5 4 -55 64 -31 50 -9 18 2 4 1 6 1
1 1 -4 -2 3 1 9 13 23 -45 -6 -26 -22 -2 11 10 19 0 9 -8 -7 5 -38 33 -5 9 1 -5 -11 -5 6 -2 -10 -12 -55 26 -38 43 10 10 16 3 5 3 3
-2 -1 2 -1 -1 5 11 9 -20 -7 10 -4 -9 2 -12 15 -1 4 -3 -11 -1 -14 -5 -9 -8 -15 16 -9 24 11 30 -2 -2 -2 2 19 -109 -4 18 14 3 4 9 4 1
-0 -1 -4 6 4 7 5 4 -10 4 9 1 6 -7 -5 -4 4 12 -9 0 11 2 -10 6 -33 19 4 24 20 8 -48 60 -1 9 -2 -15 -48 -19 -1 5 9 9 7 3 6
-0 -5 4 2 7 2 2 -4 -12 0 7 9 7 -5 -9 6 3 -2 20 -11 -7 -13 10 -5 -12 12 20 6 10 -4 28 8 -6 -28 -13 -32 -24 -61 8 10 8 6 9 5 2
1 -4 19 -1 0 -1 -13 -11 2 16 13 1 7 1 1 9 8 9 -3 -13 13 -13 14 20 24 6 16 -38 -10 -10 -5 -5 27 -13 -8 -31 -103 25 3 3 3 5 2 3 4
-5 -7 8 3 -8 -9 -9 13 18 14 7 8 5 3 -7 -2 -1 10 -8 -3 7 9 7 8 21 9 1 31 17 10 6 10 28 -38 -12 22 -135 0 5 7 4 -1 6 2 6
-7 -3 -1 0 -6 -3 2 3 -4 -1 9 -6 0 9 9 -9 2 -2 -4 -1 -2 -3 -14 7 -35 -18 12 13 -20 -19 -11 -2 6 6 -47 24 -157 -11 -3 13 5 2 3 3 3
-4 -6 -3 -4 1 -1 1 4 -2 7 -6 -11 -12 27 14 -2 6 -11 11 10 12 0 6 27 13 -11 -33 -10 67 4 -2 4 13 14 -42 -24 -34 9 12 4 12 11 -0 3 0
-6 1 2 -4 6 -2 -8 6 6 7 -5 -1 -12 -21 4 4 18 -3 4 13 8 2 9 9 -33 4 -20 28 -0 -6 5 10 4 -8 -3 -36 -14 42 10 13 10 -4 2 -4 1
-8 2 2 5 3 -2 4 16 4 14 6 4 -12 36 31 -23 -8 9 8 -10 -4 19 2 9 7 14 -13 19 -8 -16 2 -0 -6 -22 8 -22 -54 42 12 7 -13 7 1 2 -1
-1 4 -1 7 6 -3 13 8 11 -5 2 8 20 20 -54 21 6 24 18 9 7 -13 -1 -14 6 24 -30 23 26 15 -54 11 8 -0 3 -19 -33 29 -5 -6 5 3 -1 -2 -0
Height
5752 5755 5758 5762 5766 5770 5774 5777 5782 5787 5789 5792 5796 5800 5806 5811 5816 5822 5826 5825 5829 5832 5835 5837 5839 5841 5845 5847 5850 5853 5857 5862 5864 5864 5864 5866 5870 5873 5875 5875 5876 5876 5875 5877 5877
5740 5743 5746 5750 5753 5757 5762 5766 5770 5774 5778 5781 5786 5790 5794 5800 5806 5814 5814 5817 5821 5825 5827 5830 5832 5835 5837 5840 5843 5846 5852 5857 5859 5858 5857 5859 5864 5866 5869 5872 5870 5870 5870 5872 5870
5727 5731 5735 5738 5741 5745 5749 5752 5756 5761 5765 5770 5773 5779 5784 5789 5796 5801 5805 5809 5811 5815 5819 5821 5824 5827 5830 5832 5836 5839 5847 5850 5852 5851 5852 5854 5856 5860 5861 5867 5863 5865 5864 5865 5864
5713 5717 5721 5725 5728 5731 5735 5740 5743 5748 5753 5756 5761 5766 5772 5779 5787 5790 5794 5799 5802 5805 5810 5812 5816 5819 5823 5825 5828 5831 5839 5842 5845 5844 5845 5847 5849 5852 5855 5862 5856 5858 5857 5858 5859
5697 5702 5706 5710 5715 5718 5722 5726 5731 5734 5738 5742 5747 5752 5759 5767 5781 5780 5785 5788 5792 5795 5799 5803 5807 5810 5815 5818 5820 5822 5831 5833 5836 5837 5839 5841 5843 5843 5854 5851 5852 5853 5853 5853 5853
5681 5685 5689 5694 5699 5704 5709 5713 5717 5721 5724 5728 5732 5737 5744 5755 5770 5764 5772 5778 5781 5785 5789 5793 5797 5800 5804 5809 5812 5816 5822 5825 5828 5831 5832 5834 5835 5836 5851 5842 5848 5848 5848 5848 5848
5662 5668 5673 5677 5683 5688 5695 5700 5704 5708 5710 5713 5717 5722 5728 5751 5754 5754 5757 5766 5771 5774 5778 5781 5785 5790 5794 5799 5803 5807 5811 5815 5819 5825 5823 5825 5826 5835 5838 5838 5840 5841 5841 5842 5842
5642 5648 5653 5659 5665 5672 5677 5684 5689 5693 5696 5698 5700 5706 5716 5732 5738 5743 5747 5753 5759 5762 5766 5769 5773 5778 5782 5788 5792 5797 5801 5803 5814 5818 5818 5817 5820 5830 5827 5830 5832 5834 5834 5835 5836
5621 5628 5634 5640 5647 5654 5660 5665 5671 5677 5681 5682 5683 5692 5704 5717 5725 5733 5734 5741 5743 5747 5751 5755 5760 5765 5772 5778 5782 5785 5788 5795 5806 5808 5809 5810 5812 5823 5819 5822 5824 5825 5827 5828 5828
5599 5606 5613 5620 5628 5635 5641 5647 5651 5657 5662 5663 5665 5678 5697 5705 5712 5717 5717 5723 5728 5734 5737 5742 5746 5753 5762 5767 5772 5776 5783 5791 5796 5802 5801 5801 5802 5812 5812 5813 5814 5817 5819 5820 5820
5577 5584 5591 5599 5607 5615 5622 5627 5635 5638 5640 5649 5659 5668 5678 5685 5692 5701 5706 5709 5714 5716 5724 5728 5733 5745 5760 5762 5763 5766 5770 5777 5785 5788 5790 5792 5792 5798 5804 5801 5805 5807 5808 5810 5812
5553 5560 5568 5577 5585 5593 5599 5607 5613 5615 5618 5626 5637 5648 5656 5665 5675 5683 5693 5696 5701 5709 5709 5715 5724 5745 5746 5746 5749 5754 5760 5766 5770 5777 5779 5783 5782 5786 5789 5795 5795 5796 5798 5801 5803
5527 5536 5545 5553 5563 5571 5579 5587 5590 5591 5595 5605 5620 5629 5649 5650 5660 5672 5678 5684 5688 5690 5696 5702 5729 5730 5730 5735 5739 5746 5750 5758 5760 5763 5769 5768 5770 5774 5781 5781 5784 5787 5790 5793 5792
5497 5508 5518 5528 5542 5550 5559 5566 5572 5572 5569 5584 5599 5615 5630 5636 5642 5660 5665 5670 5674 5682 5686 5686 5713 5712 5714 5717 5727 5732 5744 5744 5745 5747 5753 5758 5749 5762 5764 5769 5774 5780 5783 5782 5782
5471 5480 5489 5499 5515 5529 5538 5544 5552 5547 5540 5570 5588 5603 5613 5619 5645 5644 5650 5655 5665 5666 5662 5686 5696 5698 5698 5713 5718 5725 5728 5730 5733 5733 5736 5745 5737 5741 5753 5756 5769 5773 5773 5773 5772
5453 5458 5464 5473 5491 5502 5513 5521 5525 5527 5522 5548 5566 5583 5594 5611 5626 5626 5630 5634 5645 5645 5648 5674 5682 5675 5692 5702 5701 5710 5712 5714 5716 5718 5717 5735 5730 5724 5736 5751 5759 5760 5763 5763 5764
5443 5446 5449 5458 5471 5475 5488 5496 5498 5500 5518 5533 5552 5568 5582 5594 5603 5604 5613 5613 5625 5630 5640 5666 5660 5664 5677 5683 5688 5692 5694 5694 5698 5697 5703 5710 5713 5710 5733 5735 5746 5749 5751 5754 5755
5436 5439 5441 5446 5451 5455 5464 5469 5471 5493 5508 5521 5538 5548 5556 5575 5581 5587 5591 5594 5609 5618 5633 5640 5642 5652 5667 5672 5679 5679 5679 5680 5681 5685 5698 5693 5701 5715 5723 5727 5728 5733 5738 5743 5744
5430 5431 5436 5438 5437 5439 5446 5447 5455 5478 5497 5510 5521 5527 5538 5550 5563 5568 5572 5582 5596 5607 5618 5627 5629 5646 5649 5657 5661 5660 5653 5683 5671 5676 5679 5683 5697 5700 5707 5711 5715 5722 5726 5729 5732
5422 5425 5430 5426 5429 5430 5432 5434 5445 5465 5479 5490 5498 5511 5524 5536 5541 5548 5556 5570 5578 5592 5608 5616 5618 5626 5636 5637 5635 5636 5659 5656 5654 5660 5664 5671 5682 5687 5692 5698 5705 5709 5714 5716 5719
5415 5418 5422 5420 5422 5423 5424 5434 5444 5454 5460 5471 5485 5498 5510 5523 5525 5530 5536 5556 5568 5580 5594 5605 5601 5610 5614 5613 5625 5631 5632 5632 5641 5647 5653 5661 5664 5678 5682 5684 5690 5695 5700 5705 5706
5409 5412 5415 5416 5417 5420 5426 5433 5438 5443 5448 5458 5467 5479 5490 5503 5508 5517 5522 5541 5558 5572 5569 5585 5586 5591 5591 5609 5613 5613 5616 5622 5623 5638 5644 5650 5650 5665 5668 5670 5674 5678 5685 5691 5692
5403 5406 5409 5411 5413 5416 5419 5423 5424 5431 5437 5442 5452 5466 5477 5487 5499 5507 5514 5535 5544 5551 5552 5569 5560 5573 5581 5584 5587 5594 5601 5605 5615 5618 5621 5632 5640 5660 5650 5656 5662 5667 5673 5677 5677
5399 5401 5404 5405 5408 5410 5413 5416 5419 5424 5427 5432 5440 5449 5456 5464 5482 5492 5501 5513 5527 5537 5546 5549 5550 5552 5560 5575 5592 5586 5589 5594 5597 5598 5609 5612 5635 5637 5641 5646 5650 5655 5659 5659 5658
5393 5396 5399 5401 5404 5405 5407 5410 5413 5415 5417 5423 5429 5436 5448 5452 5464 5472 5490 5500 5509 5518 5528 5533 5533 5543 5552 5565 5565 5572 5571 5577 5581 5588 5591 5608 5613 5628 5631 5631 5635 5640 5641 5644 5644
5390 5392 5395 5397 5399 5400 5401 5404 5406 5409 5412 5417 5422 5431 5431 5439 5456 5472 5479 5490 5495 5506 5512 5520 5522 5531 5534 5547 5552 5553 5556 5560 5565 5573 5579 5590 5594 5612 5608 5615 5620 5625 5627 5628 5628
5387 5389 5389 5391 5393 5395 5398 5400 5401 5403 5407 5410 5414 5411 5416 5435 5439 5451 5454 5473 5482 5488 5497 5502 5510 5515 5519 5535 5539 5531 5542 5546 5553 5560 5565 5567 5587 5594 5597 5603 5606 5608 5609 5611 5614